User: anonymous   Login
Location: Unspecified
(35.6961°N, 0.0000°E)
Time: 19:08:09
(UTC+00:00)
Language:

DX 1 - Orbit

View from above orbital plane
View from above orbital plane
View from above satellite
View from above satellite

Ground track
Ground track

The orbit data is extracted from the following two-line orbital elements,

1 40071U 14037C   19168.40638651  .00000072  00000-0  16796-4 0  9997
2 40071  98.4264 322.2248 0007441 225.0545 135.0067 14.81270256267068
Epoch (UTC): 17 June 2019 09:45:11
Eccentricity: 0.0007441
inclination: 98.4264°
perigee height: 620 km
apogee height: 630 km
right ascension of ascending node: 322.2248°
argument of perigee: 225.0545°
revolutions per day: 14.81270256
mean anomaly at epoch: 135.0067°
orbit number at epoch: 26706

The dashed part of the orbit path shows where the satellite is in the earth's shadow,  

DLR